Location: Ergnies
(50.0854°N, 2.0375°E)
Time: 11:00:14
(UTC+00:00)

ATLAS 2AS CENTAUR R/B - Pass Details

Date: 14 January 2026
Orbit: 1050 x 1161 km, 63.7° (Epoch: 10 February)

Event Time Altitude Azimuth Distance (km) Brightness Sun altitude
Exits shadow 06:10:30 15° 316° (NW) 2,512 4.1 -14.7°
Maximum altitude 06:16:16 83° 231° (SW) 1,064 2.6 -13.8°
Drops below altitude 10° 06:23:01 10° 144° (SE) 2,866 5.8 -12.8°
Sets 06:25:39 0° 143° (SE) 3,824 6.6 -12.4°
